Vorticity
5 5 6 7 5 6 7 9 8 8 9 9 8 9 14 8 17 31 18 10 9 3 6 4 11 12 -5 -5 6 7 5 4 1 1 -5 -11 -3 2 3 7 1 1 5 3 5 3 1 0 1 5 4 1 -1 -0 5 10 10 7 6 5 4 4 3 3 3 2 2 2 3 3 4 4 7 9 9 11 9 1 2 8 9 6 7 8 8 7 7 8 7 7 7 8 7 7 7 8 7
5 6 6 5 4 8 8 7 8 9 9 8 9 10 10 12 23 20 7 8 2 1 9 6 9 15 9 2 7 12 8 3 1 -1 -6 -9 -3 1 6 5 -3 2 4 4 6 5 4 1 2 3 0 -2 -1 6 10 10 8 6 5 4 4 3 3 3 2 2 2 2 3 4 4 5 8 10 10 10 7 1 -0 5 7 6 6 8 8 7 7 7 7 6 6 8 7 7 7 7 8
4 6 6 6 7 9 6 7 9 9 10 11 13 11 9 10 5 -1 5 6 -0 9 12 7 10 12 12 4 5 14 8 2 2 1 -3 -6 2 8 5 -3 -3 3 2 2 7 9 7 4 4 1 -2 -0 5 10 10 8 7 5 4 3 3 2 3 2 2 2 2 3 3 4 5 6 9 10 10 8 6 3 0 1 5 6 6 7 8 7 7 6 6 6 5 6 6 6 6 6 7
3 3 4 7 8 6 6 9 8 9 11 10 13 13 12 13 13 16 17 6 3 8 3 6 10 9 10 1 2 12 7 1 2 1 -2 -4 4 5 -4 -7 1 4 3 6 8 10 8 4 2 0 2 5 9 10 8 7 5 5 3 2 2 2 3 3 2 3 3 4 3 4 5 7 8 9 10 7 5 4 2 -0 1 5 6 6 7 6 6 6 6 6 6 6 6 5 5 6 6
4 3 4 4 4 4 6 8 7 12 10 4 8 13 9 10 16 20 19 9 4 1 1 7 4 5 8 3 2 6 4 2 3 1 -3 -4 -2 -2 -3 4 14 15 11 12 11 9 8 4 2 3 6 8 9 8 7 6 6 5 2 2 2 3 4 3 3 4 4 4 4 5 6 7 8 7 8 7 4 3 2 1 0 2 6 6 6 6 6 6 6 6 7 6 5 6 6 6 6
7 8 7 4 3 3 6 8 10 11 8 8 13 12 5 8 11 9 16 5 -5 -0 6 9 3 3 5 5 7 5 1 -2 -2 -3 -2 1 1 3 6 8 15 22 19 16 14 9 9 7 5 6 6 8 8 7 8 8 7 3 2 3 3 4 4 3 4 4 5 5 5 5 7 7 7 7 5 6 5 3 2 4 4 1 4 6 5 6 6 5 6 6 6 6 5 6 6 5 6
9 8 8 6 6 6 9 11 15 11 8 13 9 8 7 12 11 5 13 2 -3 5 4 7 6 6 5 5 8 7 4 2 2 2 3 6 8 7 10 13 10 12 14 13 13 10 9 8 6 6 7 9 9 8 9 7 4 3 2 4 4 4 3 3 4 4 5 5 6 7 7 7 6 6 4 5 6 4 4 6 7 3 2 4 4 4 6 6 6 6 6 6 6 6 6 5 5
9 9 8 8 7 7 9 11 15 9 8 14 7 12 13 12 10 2 6 -2 -1 8 4 4 4 4 3 3 6 6 9 11 10 9 9 11 18 19 15 16 10 5 6 9 10 9 7 6 7 8 9 8 7 7 8 6 4 3 3 5 4 3 3 4 3 4 5 6 8 7 7 7 6 7 4 3 6 6 6 6 6 8 5 2 3 4 6 6 7 8 6 6 6 6 6 6 6
10 10 9 7 7 8 12 14 15 10 11 20 16 17 10 7 14 11 15 7 -1 3 5 4 3 4 3 4 3 2 8 8 7 7 12 18 21 22 19 14 9 7 7 9 8 7 7 7 8 7 7 6 6 6 6 6 4 4 6 6 2 2 4 3 3 4 5 8 7 7 7 6 6 6 3 1 6 8 5 3 3 4 5 4 3 5 6 7 9 7 5 5 6 5 5 6 7
12 11 9 8 10 12 16 15 14 12 15 18 8 10 9 8 15 14 15 11 5 3 4 6 4 5 4 5 2 1 5 5 7 2 5 15 13 11 15 13 10 12 11 9 7 6 7 7 7 6 6 5 4 4 4 5 5 7 7 4 1 3 4 3 5 6 7 9 7 9 7 6 6 3 3 3 5 8 4 4 9 9 5 5 4 4 6 5 5 5 5 6 5 6 6 7 7
13 11 10 10 11 12 14 12 11 10 19 20 1 7 15 7 8 8 3 1 9 4 2 7 3 3 3 2 -1 -0 3 3 6 4 10 18 12 6 8 11 10 11 9 4 5 7 7 5 5 4 4 4 3 4 5 5 6 7 5 3 3 4 5 6 7 8 10 9 7 8 5 6 5 2 4 -0 1 7 4 5 11 12 8 6 4 2 5 2 2 4 6 6 6 7 7 7 8
11 11 12 11 11 11 10 8 9 10 25 25 0 8 15 4 4 5 2 3 12 4 1 8 2 2 3 3 0 -1 2 0 2 8 21 21 8 7 8 10 10 9 6 3 4 5 5 4 5 4 4 4 4 4 4 5 5 6 6 5 7 7 8 9 9 10 10 9 8 7 6 6 4 6 5 -4 -1 4 2 7 8 10 15 10 4 1 3 1 2 5 4 4 5 6 6 8 9
10 11 11 11 11 10 11 12 14 13 28 22 -1 8 7 3 2 -5 -4 -1 10 7 4 7 1 2 1 2 5 7 9 8 12 10 14 15 6 6 8 9 11 9 6 3 4 3 5 6 5 4 4 4 4 4 4 5 6 7 8 7 7 8 9 8 9 11 10 9 9 8 7 6 6 7 7 0 1 1 -3 7 13 17 19 9 4 4 4 2 3 5 4 4 4 4 5 6 8
10 9 10 12 11 10 12 21 25 20 26 9 -4 9 1 3 2 -9 -2 1 8 6 1 6 4 8 6 6 7 8 12 12 16 9 9 15 8 6 7 10 10 6 4 3 4 5 6 6 5 5 4 5 5 5 6 6 6 7 7 7 8 8 8 8 10 10 9 8 6 6 4 4 6 3 8 6 4 11 -0 -2 14 18 9 5 8 7 3 2 4 6 7 8 5 4 4 5 7
9 9 11 11 11 12 14 27 28 19 20 1 1 18 -2 1 7 -2 5 4 8 4 1 8 6 8 10 12 10 8 14 13 12 10 11 12 7 6 7 9 8 3 2 2 3 5 6 6 5 5 5 6 6 5 6 6 6 7 7 8 10 9 8 10 11 10 8 8 7 6 6 7 9 7 9 6 10 17 3 4 18 13 4 10 11 5 3 3 6 8 9 9 7 7 5 7 8
7 7 10 11 12 12 18 27 12 -2 7 -3 2 12 -9 -1 11 5 7 4 6 5 2 7 6 3 5 13 20 18 17 13 8 9 12 10 7 8 8 11 9 3 1 2 6 6 6 7 6 7 7 6 5 5 6 7 7 8 10 10 9 9 12 13 11 10 8 7 7 8 10 10 11 11 10 12 15 8 5 17 16 7 10 13 8 5 5 6 8 10 10 10 9 8 6 8 9
4 8 10 13 13 14 24 19 -2 -2 10 -2 -10 -10 -11 3 8 3 5 5 5 5 3 4 4 2 2 10 20 20 14 12 8 6 10 9 7 7 9 11 7 1 0 3 6 6 7 8 8 7 6 6 6 6 7 9 9 10 10 8 8 12 14 11 9 7 6 7 10 12 11 9 10 14 16 15 8 2 12 17 8 10 13 6 4 6 6 7 9 9 11 11 9 8 8 8 8
6 11 11 13 15 23 27 11 4 16 16 3 -7 -17 -4 12 9 9 6 4 6 2 2 2 5 8 6 3 10 17 13 13 11 8 9 6 7 8 8 8 3 0 3 5 4 4 6 8 8 6 6 7 6 7 8 8 8 10 10 8 11 13 10 8 8 8 9 11 10 9 7 8 10 11 13 10 5 13 17 8 8 13 6 4 8 7 6 7 8 9 11 10 8 7 7 7 7
8 10 9 13 18 28 23 10 10 15 9 8 5 -16 -5 15 10 15 10 5 8 1 3 5 6 9 10 8 9 12 6 7 11 12 14 10 9 9 8 6 0 1 3 4 3 3 6 6 5 5 6 6 7 9 10 11 11 11 9 8 10 9 7 8 10 11 10 7 7 9 12 13 11 11 13 13 11 12 7 5 12 8 2 7 9 9 10 9 8 10 10 8 8 7 7 6 7
9 7 11 15 17 25 19 12 9 8 8 8 6 -17 -12 11 9 15 12 6 9 4 7 9 9 7 13 25 20 7 1 4 9 12 14 12 9 9 10 7 2 2 3 2 2 4 7 7 4 5 6 7 9 11 12 11 11 10 6 7 10 8 9 11 10 8 5 6 11 14 12 10 11 14 16 13 9 5 7 11 8 1 3 8 9 12 14 12 10 10 10 10 10 10 9 8 7
10 6 12 14 13 22 15 12 10 8 12 -2 -10 -15 -9 9 12 13 7 6 6 2 7 7 13 13 12 27 24 10 6 6 8 6 6 6 7 8 8 7 4 2 1 2 2 5 7 6 6 6 7 9 10 11 13 12 11 8 6 9 12 12 11 9 5 3 6 11 12 9 7 9 11 11 8 7 8 11 12 8 1 2 7 10 12 12 10 11 11 10 9 10 11 11 11 10 10
10 8 12 9 13 21 4 7 9 0 9 -0 -18 -18 -3 11 17 17 5 1 2 1 5 3 11 15 12 17 15 10 9 8 6 5 8 7 6 8 6 5 5 3 2 3 4 8 8 6 7 8 8 10 10 10 9 11 12 7 9 17 15 10 7 3 4 6 10 10 6 7 10 12 11 7 5 5 7 9 6 -0 2 8 10 11 13 13 11 11 11 12 11 10 11 11 11 11 11
8 9 11 7 19 22 -3 3 9 -4 6 9 -9 -19 -9 4 11 20 14 1 -2 -1 -1 2 15 17 12 12 8 5 5 5 4 7 12 9 5 5 4 4 4 5 5 6 8 8 6 7 8 9 12 12 11 9 8 11 11 11 18 18 8 5 4 5 7 8 10 8 7 9 11 11 10 7 6 6 7 7 5 7 11 11 10 12 14 14 11 9 12 14 14 13 13 13 11 10 11
7 8 10 7 18 20 0 2 4 0 4 3 -0 -9 -10 -0 3 11 18 10 2 3 1 4 17 17 11 11 10 8 5 3 3 6 6 5 6 5 5 5 5 11 18 15 11 8 8 12 14 12 12 13 12 9 9 10 9 13 15 8 5 8 6 6 8 11 11 7 6 8 8 8 4 4 6 7 9 8 11 13 12 10 10 11 11 10 9 14 17 15 15 14 13 11 10 10 11
7 9 10 8 17 16 3 1 1 4 4 -1 2 -1 -7 -4 -0 -0 2 6 5 8 9 3 4 9 9 8 8 10 8 7 8 9 7 7 7 5 4 4 5 13 22 18 7 5 11 16 16 13 8 6 8 9 12 13 11 12 10 7 9 6 3 7 11 11 7 3 6 8 8 7 5 8 10 11 11 11 14 13 10 10 9 8 8 10 14 19 18 17 19 17 11 9 11 11 11
7 8 9 9 16 16 4 -1 -1 4 6 1 -3 -1 -1 -6 -2 -1 -7 -3 0 1 7 4 -1 5 10 6 4 6 7 9 12 13 11 10 8 7 4 1 6 11 12 11 6 11 22 18 7 5 8 6 7 14 15 13 13 12 10 10 6 3 8 12 11 7 5 6 8 7 7 9 12 13 12 12 12 13 13 11 11 11 6 5 9 14 15 15 17 18 19 17 12 10 8 6 10
8 7 9 9 14 16 10 -1 -7 -1 6 4 -2 -3 0 -2 1 4 0 1 -1 -4 1 2 -1 8 16 12 7 7 8 8 10 11 9 10 10 7 2 -1 8 10 0 -3 6 17 18 8 0 5 13 14 12 14 11 11 13 10 8 9 6 9 13 8 8 8 8 8 6 8 10 10 11 13 13 13 12 14 11 10 12 10 7 6 9 16 16 15 20 18 15 19 17 7 2 3 9
9 9 9 9 12 15 15 4 -10 -7 -2 1 3 -4 -6 4 12 12 13 14 11 8 8 6 3 9 16 11 10 10 8 6 4 8 10 9 6 4 4 5 10 4 -12 -1 25 25 9 7 11 8 7 13 15 10 9 14 13 9 10 10 10 9 6 6 11 11 8 8 12 16 16 12 13 14 14 12 11 13 9 7 8 7 9 7 9 17 16 16 20 15 11 14 14 7 4 8 9
7 9 11 9 13 16 18 12 -2 -6 -5 -4 -0 -1 -0 9 17 19 19 17 17 17 15 15 10 10 14 8 7 8 8 7 4 7 7 3 2 4 7 7 6 2 -2 17 27 4 -6 5 7 0 4 15 17 12 13 12 8 8 11 8 7 6 5 10 10 6 8 11 15 18 15 11 11 12 11 10 11 10 7 7 7 6 8 7 10 15 11 10 15 13 4 -3 4 9 9 11 9
7 7 9 8 12 15 19 18 9 0 -1 -0 -2 1 3 -7 -5 11 15 11 14 14 12 15 11 9 12 9 5 5 6 7 5 5 4 3 4 2 6 7 6 6 11 22 10 -11 -9 -4 2 15 21 14 3 3 8 10 12 9 6 4 5 8 9 11 6 4 12 12 9 10 9 7 7 10 9 8 9 7 7 8 7 7 8 6 8 13 8 6 11 10 -0 -7 3 11 10 12 9
11 10 9 8 10 13 18 20 17 9 2 2 -4 -1 5 -8 -6 13 16 10 11 10 7 6 8 10 10 13 13 9 9 10 6 6 4 3 4 2 2 1 4 9 13 19 13 6 4 5 22 27 17 8 2 12 16 13 14 5 -0 4 7 11 10 10 11 13 17 13 9 7 8 9 7 8 7 6 7 6 6 8 7 7 8 6 6 11 9 8 11 7 4 6 6 6 10 11 6
11 12 11 11 11 12 15 16 18 18 12 9 -0 -3 7 9 11 17 16 12 9 8 6 4 7 10 7 8 9 2 8 13 3 2 -1 -8 -3 6 11 9 5 6 7 7 9 9 2 12 29 15 -1 -3 1 25 23 6 5 -1 1 7 8 12 11 13 18 16 12 8 9 8 6 10 8 7 7 5 5 5 6 7 7 8 10 8 7 9 8 7 10 9 9 9 2 1 10 12 7
9 10 10 11 11 11 13 14 14 16 17 18 12 4 7 12 16 16 12 11 9 6 7 7 5 6 2 1 5 2 6 10 1 2 3 -1 -1 -5 4 21 21 20 18 2 -1 10 8 6 7 4 13 10 13 37 12 -13 3 3 4 10 9 13 12 14 16 8 4 3 6 6 5 9 8 7 7 4 4 5 6 5 5 8 9 9 9 9 8 5 6 10 10 5 3 6 9 10 8
11 12 12 11 11 11 12 14 15 15 15 15 14 12 8 8 13 15 10 8 8 5 5 5 5 9 6 4 14 15 8 9 10 11 10 10 9 -7 -14 -4 1 18 35 18 -1 3 10 11 -0 -2 11 4 13 31 -8 -25 9 14 12 15 12 13 10 8 7 1 1 1 2 5 6 8 7 7 7 5 5 5 5 5 5 7 7 8 10 10 7 2 3 8 9 5 6 8 6 7 6
12 14 12 10 12 12 9 8 10 14 16 16 13 11 9 10 14 13 9 10 8 4 4 4 6 9 8 8 14 14 7 6 11 12 10 6 3 5 4 -6 -14 1 25 31 21 8 8 20 19 12 14 10 21 26 -13 -22 13 22 17 17 16 14 8 4 2 -1 1 2 4 8 8 9 9 9 8 8 9 7 6 6 6 7 6 8 11 10 7 3 3 7 10 7 5 7 7 7 7
8 11 10 8 7 9 9 4 1 1 6 13 15 14 13 12 14 11 9 13 10 6 4 3 7 2 -1 9 9 4 4 6 10 9 7 7 -1 3 12 10 7 9 8 9 13 11 5 11 20 18 15 17 28 22 -11 -17 17 31 18 11 16 14 8 6 3 2 4 4 6 7 8 10 10 9 8 10 9 8 9 9 8 8 8 9 10 9 7 5 5 8 12 8 4 8 9 5 7
3 5 8 9 7 8 9 9 12 9 1 -1 7 16 17 18 19 17 17 17 10 10 10 2 2 -3 -2 9 1 -8 -1 5 15 21 16 11 3 -0 6 9 10 20 20 -0 -8 -2 -3 2 14 16 7 4 9 8 -4 1 23 28 13 7 13 11 6 6 5 6 7 5 4 5 8 9 9 8 7 7 8 8 11 12 11 11 10 10 11 9 7 7 7 8 10 8 5 8 7 4 7
3 2 3 4 8 8 5 13 24 25 14 0 1 8 14 28 24 8 16 26 13 8 14 7 -1 -2 2 7 -2 -7 2 2 7 22 19 2 -4 1 7 7 4 18 32 22 16 15 4 7 14 14 16 12 6 4 9 21 26 19 12 11 11 6 4 5 6 6 4 4 5 7 7 7 8 8 7 8 9 10 11 11 11 11 10 11 13 10 7 7 8 9 10 7 6 8 8 5 7
8 4 3 1 5 5 4 16 15 10 15 13 9 6 10 22 9 -14 2 29 22 7 11 10 2 2 4 5 4 3 2 -5 -5 7 6 -7 -4 7 7 6 6 13 15 11 19 20 9 10 9 8 14 13 14 20 25 26 19 13 13 12 6 3 4 4 1 0 2 4 6 7 7 7 8 7 9 12 12 11 10 9 10 10 10 11 13 11 10 9 8 10 9 6 8 11 9 5 7
13 9 10 5 4 4 6 20 15 1 10 17 10 5 9 11 4 -9 -6 19 27 9 4 5 3 8 10 5 2 2 -3 -7 -3 2 3 4 10 14 11 6 5 8 9 8 11 10 8 9 5 6 10 13 21 25 22 18 13 14 13 8 3 2 0 -4 -5 -3 -0 3 4 6 7 8 9 9 9 11 11 11 10 9 9 9 8 8 9 9 10 11 10 8 6 5 9 9 5 3 6
13 14 15 12 9 9 15 25 25 10 8 15 5 1 11 8 4 -3 -10 21 38 13 -1 -2 3 12 14 15 9 -0 -1 -1 -1 1 6 15 14 11 14 9 2 5 11 17 14 7 8 9 6 6 8 19 19 -0 -2 14 23 23 13 5 -1 -9 -8 -4 -2 -2 -3 3 6 6 7 8 9 9 8 8 8 9 10 11 10 8 8 6 6 7 8 10 10 8 7 6 5 5 4 5 6
12 12 12 14 12 14 22 21 18 8 4 16 6 -2 15 10 1 -7 -9 28 37 5 -2 -2 5 12 7 16 15 -1 -2 -1 1 5 10 15 2 -1 14 13 6 7 9 15 16 8 7 7 12 13 8 17 19 5 11 22 22 17 5 -1 -5 -8 2 5 -1 -1 2 8 7 5 9 10 10 10 9 8 7 9 10 11 12 11 10 7 5 5 6 8 9 9 8 6 5 5 7 6 6
10 12 12 14 13 16 23 15 11 6 -1 14 6 -8 9 11 4 -1 -2 28 23 -10 -6 0 2 8 2 5 3 -3 1 1 1 4 10 13 -4 -10 8 10 4 7 10 15 15 9 11 13 13 13 6 7 10 12 19 15 17 21 -2 -17 -7 3 11 8 4 9 10 10 9 8 11 12 12 12 12 10 7 7 8 8 10 11 11 11 8 7 6 6 7 8 7 6 7 7 6 7 8
6 11 13 13 19 23 20 11 14 10 -5 9 15 -1 5 10 7 0 -4 24 27 -8 -10 0 -3 -2 2 5 3 2 2 -1 -0 1 6 10 -2 -5 10 14 5 4 12 17 14 10 13 15 10 8 10 12 9 10 13 5 14 25 -7 -28 -7 8 7 8 12 11 5 9 14 12 11 11 12 12 11 11 8 5 3 3 4 4 7 9 10 10 9 7 7 6 6 6 6 6 7 8 9
9 14 15 13 24 26 13 4 9 12 -0 4 15 10 8 6 7 6 -3 14 30 10 -5 -4 -4 -3 1 3 3 1 -1 -1 3 4 3 -0 1 10 19 18 5 3 16 14 7 12 12 8 8 11 15 18 16 13 15 9 7 10 -5 -11 6 10 6 8 7 1 1 12 15 10 11 11 11 12 11 11 11 9 6 3 2 1 1 3 5 7 8 8 8 7 8 7 7 9 9 9 8
14 17 18 19 27 22 9 1 2 12 11 2 3 7 6 -0 -1 5 3 5 18 20 8 -1 -2 0 -1 -2 -2 -2 3 6 6 6 -0 -4 12 27 22 14 6 11 23 11 1 11 14 12 14 15 13 14 16 16 19 21 15 10 5 6 11 8 3 1 -3 -8 -2 12 14 8 11 10 9 10 8 9 11 11 10 8 6 5 3 3 3 4 4 5 5 6 5 4 5 7 6 7 9
10 8 15 25 32 23 9 -2 -6 8 15 5 2 6 6 1 -7 -5 -0 -1 2 9 10 10 10 1 -8 -3 4 5 4 7 11 9 1 3 23 28 15 13 13 11 12 7 7 12 11 14 15 8 2 0 2 5 8 13 16 13 9 7 5 3 -1 -2 -3 -11 -9 10 14 8 9 10 10 10 8 9 8 8 9 9 8 8 8 8 8 8 8 8 8 7 5 5 5 5 4 5 7
7 6 15 27 37 29 9 -5 -8 3 9 3 5 14 16 11 3 -2 -3 -3 -2 -2 1 7 12 8 1 1 6 6 5 10 12 4 3 16 25 17 10 14 13 8 7 11 17 13 5 8 12 9 10 8 5 5 5 7 8 10 12 10 5 2 0 1 2 -8 -6 12 13 7 10 10 11 12 10 9 8 8 9 8 9 11 11 10 10 10 10 10 11 11 10 10 8 7 7 8 7
6 9 14 18 34 31 7 -3 -5 1 7 -1 -1 9 12 12 14 10 6 6 7 11 18 19 15 12 7 0 -2 1 7 11 4 -2 9 22 17 8 8 10 9 12 17 16 16 18 16 12 10 10 12 13 13 13 12 12 11 11 13 17 17 14 10 8 6 -1 2 13 11 7 10 10 11 11 9 9 8 9 10 10 10 9 9 8 7 8 8 8 10 11 14 14 13 12 12 11 9
15 22 17 11 30 29 3 -3 -3 -2 8 2 -4 2 4 7 15 17 17 15 9 17 34 33 21 11 5 2 1 4 9 7 -0 4 16 15 7 6 7 12 18 18 16 12 6 11 16 11 7 7 9 12 14 14 13 12 14 13 11 14 16 16 13 10 6 5 10 13 9 7 8 9 9 6 7 8 8 10 11 10 7 5 4 4 5 8 9 9 8 9 12 13 12 12 11 11 11
21 25 13 7 23 23 1 -4 -1 -0 7 8 2 4 6 7 9 13 23 26 13 9 19 22 14 7 5 7 8 9 7 1 2 14 18 10 4 5 8 15 18 12 9 11 8 3 5 11 13 11 11 13 11 11 11 9 11 12 11 10 11 12 12 11 11 14 16 10 5 6 7 7 6 6 7 7 6 9 10 8 9 9 9 9 8 11 13 14 10 7 7 8 7 7 6 8 9
19 20 6 3 13 16 7 3 8 10 11 13 6 -0 3 5 2 3 14 28 23 5 1 7 9 5 3 3 3 4 1 -1 8 16 13 10 6 7 12 15 13 12 13 14 14 11 12 19 21 16 14 13 11 12 10 8 7 8 9 10 10 13 14 14 16 17 13 7 5 5 5 5 6 6 6 6 6 7 7 8 10 11 13 13 11 13 16 19 17 11 6 3 2 4 6 7 8
11 19 8 8 10 11 10 6 11 14 10 10 6 -1 -0 -2 -3 -2 -0 16 22 5 -3 4 7 4 1 0 -0 -2 -2 2 4 0 -0 10 16 16 16 14 13 15 12 6 8 13 19 22 19 16 13 9 7 6 4 4 4 5 8 11 13 16 15 11 11 11 7 4 4 3 4 6 6 5 6 6 7 7 7 8 7 6 7 10 11 11 12 15 18 17 13 8 5 5 6 7 9
-1 13 11 12 11 9 7 0 6 13 9 11 10 4 2 -5 -7 -9 -10 4 10 2 4 7 8 11 7 5 7 4 5 8 1 -7 -7 2 13 15 14 14 14 13 9 7 8 13 17 14 10 9 7 5 5 3 2 3 2 3 5 9 12 11 7 5 3 4 3 2 3 3 4 5 4 5 6 7 7 7 7 7 3 2 4 7 9 8 9 10 12 15 15 13 11 7 6 7 9
-3 8 11 9 7 16 18 4 4 10 6 11 15 12 12 9 6 -2 -6 2 4 4 13 9 5 16 16 10 12 13 10 6 4 2 -4 -6 -1 5 10 11 9 8 6 4 8 12 12 8 4 4 2 2 2 1 3 5 3 4 5 4 7 4 -0 1 3 5 6 5 5 6 5 5 6 7 6 8 9 5 5 6 3 2 3 5 7 5 6 8 9 12 14 14 14 12 11 10 10
2 4 9 7 4 18 26 11 5 7 4 7 8 9 15 15 15 14 10 13 12 6 10 11 6 11 14 10 12 16 13 7 10 11 5 4 3 2 7 7 5 8 4 9 21 12 4 11 11 7 4 3 6 6 5 6 4 5 7 5 4 3 -0 -0 3 6 8 7 7 6 5 6 7 7 7 8 9 4 3 5 4 2 3 5 6 4 3 5 6 9 12 13 14 15 15 15 13
7 2 6 10 3 7 16 12 7 5 6 10 7 3 7 9 11 12 7 11 16 3 1 21 27 13 8 10 10 11 9 5 7 7 5 8 8 6 7 3 6 8 -0 17 35 5 -13 7 13 11 9 1 8 14 5 5 6 3 5 6 4 4 3 2 3 4 5 5 6 7 8 8 7 9 9 8 7 5 4 6 6 4 4 5 7 5 4 4 4 6 9 10 11 13 15 14 14
10 4 5 10 4 0 4 8 11 6 4 13 18 10 7 8 10 10 4 4 10 7 5 21 29 14 6 8 8 8 7 4 4 4 5 8 8 7 6 5 10 7 -1 17 29 2 -8 7 8 16 19 3 8 16 4 2 7 5 4 5 5 6 5 4 3 3 5 4 4 8 10 10 9 7 5 4 4 4 4 6 8 6 5 6 8 7 5 3 3 6 9 9 9 10 10 11 13
Height
5845 5846 5847 5847 5848 5849 5850 5850 5850 5851 5852 5852 5851 5851 5851 5851 5851 5851 5850 5850 5848 5848 5852 5851 5851 5854 5854 5856 5857 5858 5858 5857 5857 5857 5857 5857 5858 5858 5857 5857 5857 5857 5857 5857 5858 5858 5859 5858 5858 5857 5857 5857 5857 5857 5856 5856 5855 5855 5854 5853 5852 5852 5851 5850 5850 5849 5849 5849 5848 5847 5847 5847 5847 5847 5846 5846 5845 5845 5844 5843 5843 5842 5842 5841 5840 5840 5840 5839 5838 5838 5837 5837 5836 5836 5836 5835 5835
5841 5842 5843 5844 5845 5846 5846 5847 5847 5848 5849 5849 5847 5848 5848 5848 5848 5847 5846 5845 5844 5847 5850 5848 5849 5851 5851 5852 5854 5856 5857 5857 5857 5857 5857 5857 5858 5857 5857 5856 5856 5856 5856 5856 5856 5856 5857 5856 5856 5856 5855 5855 5855 5855 5855 5854 5853 5853 5852 5851 5851 5850 5850 5849 5849 5848 5848 5847 5847 5846 5846 5845 5846 5845 5845 5844 5844 5844 5843 5843 5842 5842 5841 5841 5840 5840 5839 5838 5838 5837 5837 5836 5836 5836 5835 5835 5834
5837 5839 5839 5840 5842 5843 5843 5844 5845 5846 5847 5845 5844 5845 5845 5845 5844 5843 5843 5842 5842 5846 5847 5847 5848 5849 5850 5850 5851 5854 5855 5855 5856 5856 5856 5857 5857 5856 5856 5855 5855 5855 5855 5855 5855 5855 5855 5855 5854 5854 5854 5854 5854 5853 5853 5852 5852 5851 5850 5850 5849 5849 5848 5848 5848 5847 5846 5846 5846 5845 5844 5844 5844 5844 5844 5843 5843 5843 5842 5842 5841 5841 5841 5841 5840 5839 5838 5838 5837 5836 5836 5836 5835 5835 5834 5834 5834
5834 5835 5836 5837 5838 5839 5840 5841 5842 5843 5845 5843 5841 5842 5842 5843 5842 5841 5841 5840 5839 5843 5846 5847 5846 5847 5849 5849 5850 5851 5853 5853 5853 5854 5855 5856 5855 5854 5854 5854 5853 5853 5853 5853 5853 5853 5853 5853 5853 5852 5852 5852 5852 5852 5851 5851 5850 5849 5848 5848 5848 5848 5847 5847 5847 5846 5845 5845 5844 5844 5843 5843 5843 5843 5843 5842 5842 5841 5841 5841 5841 5841 5840 5840 5839 5838 5838 5837 5836 5835 5835 5835 5834 5834 5833 5833 5833
5830 5831 5832 5833 5834 5836 5837 5838 5839 5841 5841 5840 5839 5839 5839 5840 5840 5839 5839 5838 5836 5840 5844 5845 5844 5845 5846 5847 5848 5849 5850 5850 5850 5851 5853 5854 5853 5852 5852 5852 5851 5851 5851 5851 5851 5851 5851 5851 5851 5851 5851 5850 5850 5850 5850 5849 5848 5847 5847 5847 5846 5846 5846 5846 5846 5845 5844 5844 5843 5843 5842 5842 5841 5841 5841 5841 5840 5840 5840 5840 5840 5840 5839 5839 5838 5838 5837 5836 5835 5834 5834 5834 5833 5833 5832 5832 5832
5827 5828 5829 5830 5831 5832 5834 5835 5837 5838 5838 5837 5837 5837 5837 5837 5837 5836 5836 5836 5835 5837 5840 5842 5842 5843 5844 5845 5846 5847 5847 5848 5848 5849 5851 5852 5851 5850 5850 5849 5849 5849 5848 5848 5848 5848 5848 5849 5849 5849 5849 5849 5849 5848 5848 5847 5846 5846 5846 5845 5845 5845 5845 5845 5844 5844 5843 5843 5842 5841 5841 5840 5840 5840 5840 5840 5839 5839 5839 5839 5839 5838 5838 5838 5837 5837 5836 5835 5834 5833 5833 5833 5832 5832 5831 5831 5831
5823 5824 5825 5826 5828 5829 5831 5833 5834 5835 5835 5834 5834 5834 5835 5835 5835 5834 5833 5833 5834 5836 5838 5840 5840 5841 5841 5843 5844 5844 5845 5846 5847 5847 5848 5848 5848 5847 5847 5847 5847 5847 5846 5846 5846 5846 5846 5847 5847 5847 5847 5847 5847 5846 5846 5845 5845 5844 5844 5844 5844 5844 5843 5843 5843 5842 5842 5841 5841 5840 5840 5839 5839 5838 5839 5839 5838 5838 5838 5837 5837 5837 5836 5836 5836 5836 5835 5834 5833 5832 5832 5831 5831 5831 5830 5830 5830
5819 5820 5822 5823 5825 5826 5828 5830 5831 5831 5831 5831 5830 5832 5832 5833 5833 5831 5831 5830 5831 5833 5835 5837 5837 5838 5839 5839 5840 5841 5843 5845 5845 5845 5845 5845 5845 5844 5844 5844 5844 5844 5844 5844 5844 5844 5845 5845 5845 5846 5846 5845 5845 5844 5843 5843 5843 5843 5843 5842 5842 5842 5842 5841 5841 5841 5840 5840 5839 5839 5838 5838 5837 5837 5837 5837 5837 5836 5836 5836 5836 5835 5835 5835 5834 5834 5834 5833 5832 5832 5831 5830 5829 5829 5829 5829 5829
5815 5817 5818 5820 5821 5823 5825 5827 5828 5827 5827 5827 5827 5829 5828 5830 5829 5828 5827 5827 5828 5830 5832 5834 5834 5835 5835 5835 5836 5838 5840 5841 5841 5842 5842 5842 5842 5842 5842 5842 5842 5842 5842 5842 5842 5842 5843 5843 5844 5844 5843 5843 5842 5841 5841 5841 5841 5841 5841 5841 5841 5840 5840 5840 5839 5839 5839 5838 5837 5837 5836 5836 5836 5836 5835 5835 5835 5835 5835 5835 5834 5834 5834 5833 5833 5832 5832 5832 5831 5830 5829 5829 5828 5828 5828 5828 5828
5812 5813 5815 5816 5818 5821 5823 5823 5823 5823 5823 5823 5824 5826 5825 5826 5826 5825 5825 5824 5826 5828 5830 5831 5831 5832 5832 5832 5833 5835 5838 5838 5839 5838 5838 5838 5838 5839 5839 5839 5840 5840 5840 5840 5840 5841 5841 5841 5841 5841 5840 5840 5839 5839 5839 5839 5839 5839 5839 5839 5839 5839 5838 5838 5838 5837 5836 5836 5835 5835 5835 5834 5834 5834 5833 5834 5834 5833 5833 5833 5833 5832 5832 5831 5831 5831 5831 5830 5830 5829 5828 5827 5827 5827 5827 5827 5828
5808 5810 5811 5813 5815 5818 5819 5819 5819 5819 5819 5820 5821 5824 5823 5823 5823 5823 5823 5822 5824 5826 5828 5829 5828 5829 5829 5830 5831 5833 5835 5836 5836 5835 5835 5835 5835 5836 5836 5837 5837 5838 5838 5838 5838 5839 5839 5839 5839 5838 5837 5837 5837 5837 5837 5837 5837 5837 5837 5837 5837 5837 5836 5836 5835 5835 5834 5833 5833 5833 5833 5833 5832 5832 5832 5832 5833 5832 5832 5831 5831 5830 5830 5829 5829 5830 5829 5829 5828 5828 5828 5826 5826 5825 5825 5826 5827
5804 5806 5808 5810 5812 5814 5815 5814 5815 5815 5816 5817 5819 5822 5821 5820 5821 5821 5821 5821 5822 5824 5826 5826 5825 5825 5827 5828 5830 5831 5832 5833 5833 5833 5833 5832 5832 5833 5834 5834 5835 5835 5835 5836 5836 5837 5837 5836 5836 5835 5835 5835 5835 5835 5835 5835 5835 5835 5835 5835 5835 5835 5834 5833 5833 5832 5831 5831 5831 5831 5831 5831 5830 5830 5830 5830 5831 5831 5830 5830 5829 5828 5828 5828 5828 5828 5828 5828 5827 5827 5827 5825 5824 5824 5824 5825 5825
5801 5803 5805 5807 5809 5811 5811 5811 5812 5812 5813 5815 5817 5819 5818 5818 5819 5819 5819 5819 5820 5822 5823 5823 5823 5824 5825 5825 5827 5828 5830 5831 5831 5830 5830 5829 5830 5831 5832 5832 5833 5833 5833 5834 5834 5834 5834 5833 5833 5832 5832 5832 5832 5832 5832 5832 5832 5833 5833 5833 5833 5832 5831 5831 5830 5830 5829 5829 5829 5829 5829 5829 5829 5829 5828 5828 5828 5828 5828 5828 5827 5826 5826 5827 5827 5827 5827 5827 5826 5826 5825 5824 5823 5822 5822 5823 5824
5798 5799 5802 5804 5805 5808 5809 5809 5809 5810 5811 5812 5814 5816 5816 5816 5816 5815 5816 5817 5818 5820 5820 5820 5822 5823 5823 5823 5823 5824 5827 5828 5827 5827 5828 5828 5827 5829 5830 5830 5831 5831 5831 5832 5832 5832 5831 5831 5830 5830 5830 5830 5830 5830 5830 5830 5831 5831 5831 5831 5831 5830 5829 5828 5828 5828 5827 5827 5827 5827 5827 5827 5827 5827 5826 5826 5826 5826 5827 5826 5825 5825 5825 5825 5825 5825 5825 5825 5825 5824 5824 5823 5821 5820 5820 5822 5823
5794 5796 5799 5800 5803 5806 5807 5807 5807 5807 5807 5810 5812 5814 5814 5813 5812 5812 5814 5815 5816 5817 5817 5819 5821 5821 5820 5821 5820 5821 5825 5826 5825 5825 5825 5825 5825 5827 5828 5828 5829 5829 5829 5829 5829 5829 5828 5828 5828 5828 5828 5828 5828 5828 5828 5828 5828 5828 5829 5829 5828 5828 5827 5826 5826 5826 5825 5825 5825 5825 5825 5824 5824 5824 5824 5824 5824 5824 5824 5824 5824 5824 5824 5824 5824 5824 5824 5823 5823 5822 5822 5821 5820 5818 5818 5819 5821
5791 5793 5795 5798 5801 5804 5805 5805 5804 5804 5805 5807 5809 5810 5812 5811 5809 5809 5811 5811 5813 5814 5814 5817 5820 5818 5817 5818 5818 5819 5822 5822 5822 5822 5823 5823 5824 5824 5826 5826 5826 5827 5827 5827 5826 5826 5826 5826 5826 5826 5826 5825 5825 5825 5826 5826 5826 5826 5826 5826 5826 5825 5824 5823 5824 5824 5823 5823 5823 5823 5823 5822 5822 5821 5821 5822 5822 5822 5822 5822 5822 5822 5822 5822 5823 5823 5822 5821 5821 5820 5820 5819 5818 5816 5816 5817 5818
5787 5789 5792 5796 5799 5801 5802 5802 5802 5804 5804 5804 5804 5806 5808 5807 5806 5807 5808 5808 5810 5812 5812 5814 5817 5816 5815 5815 5816 5817 5818 5818 5819 5819 5820 5821 5822 5823 5824 5824 5824 5825 5825 5824 5824 5824 5824 5824 5824 5823 5823 5823 5823 5823 5823 5823 5824 5824 5824 5824 5823 5822 5822 5821 5822 5822 5821 5821 5821 5821 5821 5820 5820 5819 5819 5819 5820 5820 5820 5820 5821 5820 5820 5821 5821 5821 5820 5819 5819 5818 5818 5817 5816 5815 5815 5815 5816
5784 5787 5790 5794 5798 5800 5800 5799 5801 5803 5802 5801 5800 5802 5805 5804 5803 5804 5805 5806 5806 5809 5809 5810 5814 5814 5813 5813 5814 5814 5814 5815 5816 5817 5818 5819 5820 5821 5822 5822 5822 5822 5822 5822 5821 5821 5821 5821 5820 5820 5820 5820 5820 5820 5821 5821 5822 5822 5822 5821 5821 5820 5820 5820 5820 5820 5820 5820 5820 5820 5819 5819 5818 5818 5817 5818 5818 5818 5818 5819 5819 5819 5819 5819 5819 5819 5818 5817 5816 5816 5816 5815 5815 5814 5814 5814 5814
5782 5784 5787 5793 5797 5797 5796 5797 5797 5798 5798 5798 5797 5799 5802 5802 5800 5801 5803 5804 5804 5805 5806 5807 5810 5811 5811 5811 5811 5811 5812 5813 5814 5815 5816 5817 5818 5818 5819 5819 5820 5820 5819 5819 5819 5819 5819 5818 5817 5817 5817 5817 5817 5818 5818 5819 5819 5819 5819 5819 5818 5818 5818 5818 5818 5819 5819 5819 5819 5818 5817 5817 5816 5816 5816 5816 5816 5816 5817 5817 5817 5817 5817 5817 5817 5817 5816 5815 5814 5814 5814 5813 5813 5813 5813 5813 5812
5779 5781 5785 5791 5793 5793 5793 5794 5793 5794 5795 5794 5795 5796 5798 5800 5798 5798 5800 5802 5802 5801 5803 5806 5807 5807 5808 5809 5809 5809 5810 5810 5811 5813 5813 5814 5815 5816 5816 5817 5817 5817 5817 5817 5816 5817 5816 5815 5815 5815 5815 5814 5815 5816 5816 5817 5817 5817 5817 5816 5816 5816 5816 5817 5817 5817 5818 5817 5817 5816 5816 5815 5815 5814 5814 5815 5815 5815 5815 5815 5815 5816 5816 5815 5815 5814 5814 5813 5812 5812 5812 5812 5812 5813 5813 5811 5811
5777 5779 5784 5788 5789 5789 5791 5791 5790 5791 5792 5791 5791 5793 5796 5797 5795 5795 5797 5799 5799 5799 5801 5804 5804 5805 5806 5806 5807 5807 5807 5808 5809 5811 5811 5812 5813 5814 5814 5815 5816 5815 5815 5815 5815 5815 5814 5813 5813 5813 5812 5812 5813 5814 5815 5815 5815 5814 5814 5814 5814 5814 5815 5815 5816 5816 5816 5815 5815 5814 5814 5814 5814 5813 5813 5813 5813 5813 5813 5814 5814 5814 5814 5813 5812 5812 5811 5811 5811 5811 5811 5811 5812 5812 5811 5809 5809
5774 5777 5782 5785 5784 5786 5787 5787 5787 5787 5788 5788 5788 5789 5793 5795 5794 5793 5794 5795 5796 5797 5800 5802 5802 5803 5804 5803 5804 5805 5805 5805 5806 5808 5810 5811 5812 5812 5813 5814 5815 5815 5814 5814 5813 5813 5811 5811 5810 5810 5810 5810 5811 5812 5813 5813 5813 5812 5812 5812 5812 5813 5814 5814 5814 5814 5814 5813 5813 5813 5813 5813 5813 5812 5812 5812 5812 5812 5812 5813 5813 5812 5811 5811 5811 5810 5810 5810 5810 5810 5810 5811 5811 5810 5809 5808 5809
5772 5774 5779 5781 5783 5784 5784 5783 5784 5784 5785 5785 5785 5786 5789 5792 5793 5792 5791 5793 5794 5797 5799 5800 5800 5801 5801 5801 5801 5802 5802 5803 5805 5807 5809 5810 5811 5811 5812 5813 5814 5813 5812 5812 5811 5810 5808 5807 5807 5807 5808 5809 5809 5810 5811 5811 5810 5810 5811 5811 5811 5812 5812 5813 5812 5812 5812 5812 5812 5812 5812 5812 5811 5811 5810 5810 5810 5810 5811 5811 5811 5810 5810 5809 5809 5809 5808 5808 5809 5809 5810 5811 5810 5808 5807 5808 5808
5769 5772 5776 5778 5780 5782 5781 5781 5782 5781 5781 5782 5782 5783 5785 5788 5791 5790 5790 5791 5793 5795 5797 5799 5799 5798 5799 5799 5799 5800 5801 5802 5804 5806 5808 5808 5809 5809 5811 5811 5811 5810 5808 5808 5807 5805 5804 5804 5804 5805 5806 5807 5808 5808 5809 5808 5808 5808 5809 5810 5810 5810 5811 5811 5811 5811 5811 5810 5811 5811 5811 5810 5810 5809 5809 5809 5809 5809 5810 5810 5809 5809 5809 5809 5808 5808 5807 5808 5808 5809 5809 5809 5808 5807 5807 5807 5806
5767 5771 5774 5776 5777 5779 5779 5779 5779 5778 5778 5779 5780 5781 5782 5784 5786 5788 5788 5789 5791 5792 5794 5796 5797 5796 5796 5797 5798 5799 5800 5801 5802 5805 5806 5806 5806 5807 5809 5809 5808 5807 5804 5803 5803 5802 5802 5803 5803 5805 5806 5806 5806 5806 5806 5806 5806 5807 5808 5808 5809 5809 5809 5809 5809 5809 5809 5809 5809 5809 5809 5809 5808 5808 5808 5808 5808 5809 5809 5809 5808 5808 5808 5808 5807 5807 5807 5808 5808 5808 5808 5807 5806 5806 5806 5805 5805
5765 5768 5770 5772 5774 5775 5775 5775 5776 5776 5777 5778 5778 5779 5780 5781 5782 5784 5785 5787 5789 5790 5792 5794 5795 5795 5795 5796 5797 5798 5798 5799 5800 5803 5804 5804 5804 5805 5806 5806 5805 5804 5801 5799 5800 5800 5800 5802 5804 5804 5804 5804 5804 5804 5804 5804 5804 5805 5806 5807 5807 5807 5807 5808 5808 5808 5809 5808 5808 5808 5808 5807 5807 5807 5807 5807 5808 5808 5808 5809 5808 5808 5808 5807 5807 5807 5807 5807 5807 5806 5806 5805 5805 5806 5806 5805 5805
5763 5765 5766 5768 5770 5771 5771 5771 5772 5774 5775 5775 5775 5776 5778 5780 5781 5782 5783 5785 5788 5788 5789 5791 5792 5793 5793 5794 5795 5796 5796 5797 5798 5801 5801 5801 5802 5802 5802 5802 5800 5799 5798 5797 5799 5799 5798 5801 5802 5801 5801 5800 5801 5801 5802 5801 5802 5803 5804 5805 5805 5806 5806 5807 5807 5808 5808 5808 5807 5807 5806 5806 5806 5806 5807 5807 5807 5808 5808 5808 5808 5808 5807 5807 5806 5806 5806 5806 5806 5805 5804 5804 5805 5806 5806 5805 5805
5760 5762 5763 5765 5767 5768 5769 5769 5770 5770 5771 5772 5773 5774 5777 5780 5781 5781 5782 5783 5785 5786 5787 5788 5790 5790 5790 5791 5793 5793 5794 5795 5797 5799 5799 5799 5798 5797 5797 5796 5795 5796 5797 5797 5798 5797 5797 5799 5799 5799 5799 5798 5798 5799 5799 5799 5800 5801 5802 5803 5804 5805 5805 5806 5806 5807 5807 5807 5806 5806 5805 5805 5805 5806 5806 5807 5807 5808 5808 5808 5808 5807 5807 5806 5806 5806 5806 5805 5804 5804 5803 5804 5805 5805 5806 5806 5805
5758 5759 5761 5763 5765 5767 5768 5768 5768 5768 5769 5771 5771 5771 5776 5780 5780 5782 5781 5780 5782 5784 5785 5786 5787 5788 5787 5789 5790 5791 5792 5793 5795 5796 5796 5795 5793 5792 5792 5792 5793 5795 5796 5796 5795 5794 5795 5797 5796 5796 5796 5795 5796 5796 5796 5797 5798 5800 5801 5802 5803 5804 5804 5805 5805 5805 5806 5805 5805 5805 5804 5805 5805 5806 5806 5807 5808 5808 5808 5807 5807 5806 5806 5806 5806 5806 5806 5805 5803 5803 5803 5804 5805 5805 5805 5805 5804
5756 5757 5758 5760 5762 5765 5768 5768 5768 5768 5768 5769 5769 5768 5774 5779 5780 5782 5780 5777 5779 5782 5783 5785 5785 5786 5786 5787 5788 5789 5790 5791 5792 5792 5791 5790 5789 5791 5792 5793 5794 5795 5793 5792 5792 5792 5794 5795 5793 5792 5792 5793 5794 5795 5795 5796 5797 5798 5799 5801 5802 5802 5803 5803 5803 5804 5804 5804 5804 5804 5804 5804 5805 5805 5806 5807 5807 5807 5807 5806 5806 5805 5805 5806 5806 5806 5805 5804 5803 5803 5803 5804 5804 5805 5804 5804 5804
5754 5754 5755 5758 5760 5763 5767 5767 5767 5767 5767 5768 5767 5767 5772 5777 5778 5780 5778 5775 5777 5779 5781 5782 5783 5785 5785 5786 5787 5787 5786 5787 5788 5788 5788 5788 5790 5792 5793 5793 5793 5792 5791 5790 5790 5791 5793 5793 5791 5790 5791 5792 5793 5793 5794 5795 5796 5797 5798 5799 5800 5801 5801 5801 5802 5802 5803 5804 5804 5804 5804 5804 5805 5805 5805 5806 5806 5806 5806 5805 5805 5805 5805 5805 5806 5805 5804 5803 5802 5802 5803 5803 5804 5804 5804 5803 5803
5752 5752 5754 5757 5758 5762 5764 5764 5765 5767 5768 5768 5767 5767 5771 5775 5776 5778 5776 5773 5774 5777 5779 5780 5782 5783 5784 5785 5785 5784 5784 5785 5786 5787 5787 5789 5791 5792 5792 5791 5789 5788 5789 5788 5788 5790 5791 5791 5791 5791 5791 5791 5790 5791 5792 5793 5794 5795 5796 5797 5798 5799 5799 5800 5800 5801 5802 5803 5803 5804 5804 5804 5804 5804 5805 5805 5805 5805 5805 5805 5805 5805 5805 5805 5805 5804 5803 5802 5801 5801 5802 5802 5803 5804 5804 5803 5802
5750 5751 5753 5755 5756 5759 5761 5762 5763 5765 5766 5767 5766 5765 5768 5773 5774 5775 5775 5772 5771 5773 5776 5778 5780 5781 5783 5783 5782 5782 5782 5783 5785 5786 5786 5787 5788 5788 5787 5786 5784 5784 5786 5785 5786 5787 5788 5788 5789 5790 5790 5789 5788 5789 5791 5792 5793 5794 5795 5796 5797 5797 5798 5799 5799 5800 5801 5801 5802 5803 5803 5803 5803 5803 5804 5804 5804 5805 5805 5805 5805 5805 5804 5804 5804 5804 5803 5802 5801 5800 5801 5802 5802 5803 5803 5803 5803
5749 5750 5752 5753 5754 5755 5758 5760 5760 5762 5763 5763 5763 5763 5766 5770 5771 5772 5772 5771 5770 5770 5773 5775 5777 5779 5781 5780 5779 5781 5781 5781 5783 5785 5785 5785 5785 5784 5782 5780 5779 5780 5782 5782 5783 5784 5785 5786 5787 5788 5789 5788 5788 5789 5790 5790 5791 5793 5794 5794 5795 5796 5797 5798 5799 5799 5799 5800 5801 5802 5803 5803 5802 5802 5803 5803 5804 5804 5805 5804 5804 5804 5804 5804 5803 5803 5802 5802 5800 5799 5800 5801 5802 5802 5803 5803 5803
5747 5747 5748 5750 5751 5752 5754 5756 5756 5757 5758 5759 5760 5760 5763 5767 5768 5769 5770 5770 5769 5768 5769 5772 5775 5778 5778 5777 5777 5778 5778 5779 5782 5783 5784 5783 5782 5780 5778 5777 5776 5778 5780 5780 5780 5782 5783 5784 5785 5787 5788 5787 5788 5789 5790 5790 5790 5792 5792 5793 5794 5795 5796 5797 5798 5798 5799 5800 5801 5802 5802 5802 5801 5801 5802 5802 5803 5804 5804 5804 5803 5803 5803 5803 5802 5802 5801 5801 5800 5799 5799 5799 5800 5800 5801 5802 5803
5743 5743 5745 5746 5747 5749 5751 5752 5753 5754 5753 5754 5756 5758 5761 5764 5765 5767 5767 5768 5768 5767 5767 5768 5772 5775 5774 5774 5775 5775 5776 5778 5780 5781 5782 5782 5780 5779 5777 5777 5776 5778 5780 5779 5779 5780 5781 5782 5784 5785 5786 5786 5787 5789 5790 5790 5790 5791 5791 5792 5793 5794 5795 5796 5798 5798 5799 5799 5800 5800 5801 5801 5800 5800 5800 5801 5802 5803 5803 5803 5803 5802 5802 5801 5801 5801 5801 5801 5800 5799 5798 5798 5798 5798 5799 5800 5801
5740 5741 5742 5743 5745 5747 5749 5751 5752 5751 5750 5750 5752 5755 5758 5760 5761 5763 5764 5765 5766 5766 5765 5765 5768 5771 5771 5772 5773 5773 5774 5776 5778 5779 5780 5780 5780 5778 5777 5777 5777 5777 5778 5778 5778 5779 5779 5781 5782 5784 5785 5786 5787 5788 5789 5789 5789 5790 5790 5791 5792 5793 5795 5796 5797 5797 5797 5798 5798 5799 5799 5799 5799 5799 5799 5800 5800 5801 5801 5801 5801 5801 5800 5800 5800 5800 5801 5801 5800 5799 5798 5797 5797 5797 5797 5798 5799
5737 5738 5739 5741 5743 5745 5748 5750 5749 5748 5747 5749 5750 5751 5753 5756 5758 5760 5762 5762 5763 5764 5763 5763 5765 5766 5767 5769 5770 5771 5773 5775 5776 5777 5778 5779 5778 5777 5776 5778 5777 5776 5776 5776 5777 5777 5778 5780 5781 5782 5783 5784 5785 5786 5786 5787 5787 5789 5790 5790 5791 5792 5793 5794 5795 5795 5796 5796 5797 5798 5798 5798 5798 5798 5798 5798 5799 5799 5800 5800 5800 5800 5800 5800 5800 5800 5800 5800 5799 5798 5797 5797 5797 5797 5797 5797 5797
5734 5736 5737 5738 5741 5743 5746 5748 5747 5745 5745 5747 5747 5748 5750 5753 5755 5757 5759 5760 5762 5762 5762 5762 5763 5763 5765 5767 5767 5770 5773 5775 5776 5776 5776 5777 5777 5776 5776 5776 5776 5775 5775 5776 5776 5776 5776 5778 5779 5780 5781 5782 5783 5783 5784 5785 5786 5787 5789 5789 5789 5790 5791 5792 5793 5794 5794 5795 5796 5797 5797 5797 5797 5796 5796 5797 5797 5798 5798 5798 5799 5799 5799 5799 5799 5799 5799 5799 5798 5798 5797 5797 5796 5796 5796 5797 5797
5732 5733 5735 5737 5739 5740 5743 5745 5744 5743 5743 5745 5746 5746 5748 5751 5752 5754 5757 5759 5760 5760 5760 5761 5762 5762 5763 5764 5766 5769 5772 5773 5774 5774 5775 5775 5775 5775 5775 5775 5775 5774 5775 5775 5776 5775 5775 5776 5777 5778 5779 5780 5780 5780 5782 5784 5785 5786 5788 5788 5789 5789 5790 5791 5792 5792 5793 5794 5795 5796 5796 5796 5795 5795 5795 5795 5795 5796 5796 5797 5797 5798 5798 5798 5798 5798 5798 5798 5797 5797 5797 5796 5796 5796 5796 5796 5796
5730 5731 5733 5735 5737 5738 5740 5742 5741 5741 5742 5743 5744 5745 5746 5748 5749 5751 5754 5756 5757 5758 5758 5759 5760 5760 5760 5762 5764 5767 5770 5772 5772 5773 5774 5774 5774 5774 5774 5774 5774 5774 5774 5774 5774 5774 5773 5774 5776 5777 5777 5777 5778 5779 5781 5783 5783 5785 5787 5788 5789 5790 5790 5790 5790 5791 5791 5792 5793 5794 5795 5795 5794 5793 5793 5794 5794 5794 5795 5795 5796 5796 5796 5797 5797 5797 5797 5797 5796 5796 5796 5796 5795 5795 5795 5795 5795
5727 5729 5730 5732 5735 5736 5737 5738 5738 5739 5740 5740 5742 5743 5743 5745 5747 5749 5752 5754 5755 5756 5756 5756 5757 5757 5758 5760 5763 5767 5769 5770 5771 5771 5772 5772 5771 5771 5772 5772 5771 5771 5772 5772 5772 5772 5772 5772 5774 5775 5775 5775 5776 5778 5779 5781 5782 5783 5785 5786 5788 5789 5789 5789 5789 5789 5790 5791 5792 5793 5793 5793 5793 5792 5792 5793 5793 5793 5793 5794 5794 5794 5795 5795 5795 5796 5796 5796 5795 5795 5795 5795 5795 5795 5794 5794 5794
5725 5727 5728 5730 5732 5733 5733 5735 5735 5736 5737 5738 5740 5740 5741 5743 5746 5748 5750 5753 5753 5753 5753 5753 5753 5754 5757 5760 5762 5765 5767 5768 5769 5769 5769 5769 5769 5769 5770 5770 5769 5769 5769 5770 5770 5769 5770 5770 5771 5772 5773 5774 5775 5776 5778 5780 5780 5781 5783 5784 5786 5787 5787 5787 5788 5788 5789 5790 5790 5791 5791 5792 5792 5792 5792 5792 5792 5792 5792 5792 5793 5793 5793 5793 5794 5794 5794 5795 5795 5794 5794 5794 5794 5794 5794 5794 5794
5722 5724 5725 5727 5729 5729 5731 5732 5733 5734 5735 5735 5737 5737 5738 5741 5743 5746 5749 5751 5752 5751 5750 5750 5750 5753 5756 5759 5761 5763 5765 5766 5767 5767 5767 5767 5766 5767 5768 5768 5768 5767 5767 5767 5767 5768 5768 5769 5769 5769 5770 5772 5773 5774 5776 5778 5779 5780 5781 5782 5783 5784 5785 5785 5786 5787 5788 5788 5789 5789 5789 5790 5790 5790 5790 5790 5790 5791 5790 5791 5791 5791 5792 5792 5792 5793 5793 5793 5794 5794 5793 5793 5793 5793 5793 5793 5793
5719 5721 5722 5723 5725 5726 5727 5729 5730 5731 5732 5733 5735 5735 5736 5739 5742 5744 5747 5749 5750 5750 5749 5748 5750 5753 5755 5758 5760 5762 5763 5765 5765 5765 5765 5765 5765 5766 5767 5767 5766 5765 5765 5765 5765 5766 5766 5767 5767 5768 5769 5770 5771 5771 5773 5775 5777 5778 5779 5780 5781 5781 5782 5783 5784 5785 5786 5786 5786 5787 5787 5788 5788 5789 5789 5789 5789 5789 5789 5789 5789 5790 5791 5791 5791 5792 5792 5792 5792 5793 5793 5792 5792 5792 5792 5793 5792
5717 5718 5718 5719 5722 5723 5724 5726 5728 5729 5729 5731 5733 5733 5734 5737 5740 5742 5744 5746 5747 5749 5748 5748 5750 5752 5754 5757 5759 5761 5762 5763 5763 5763 5763 5764 5764 5765 5765 5764 5764 5763 5763 5763 5763 5764 5765 5766 5766 5767 5768 5769 5769 5770 5771 5772 5774 5775 5777 5778 5778 5779 5779 5780 5781 5782 5783 5784 5784 5785 5785 5786 5786 5787 5787 5787 5787 5787 5787 5787 5788 5789 5789 5790 5790 5790 5790 5791 5791 5791 5791 5791 5791 5791 5791 5791 5791
5714 5714 5715 5716 5718 5720 5722 5724 5726 5726 5726 5729 5731 5732 5733 5736 5738 5740 5741 5743 5744 5746 5747 5748 5750 5751 5753 5756 5758 5760 5761 5761 5761 5761 5762 5762 5763 5763 5763 5762 5761 5761 5761 5760 5761 5762 5763 5764 5765 5766 5767 5768 5769 5769 5770 5770 5771 5773 5774 5775 5776 5776 5777 5778 5779 5780 5781 5781 5782 5783 5783 5784 5784 5785 5784 5785 5785 5785 5785 5786 5786 5787 5787 5788 5788 5788 5788 5788 5789 5789 5789 5789 5789 5789 5790 5790 5790
5711 5712 5713 5714 5715 5717 5719 5722 5724 5724 5725 5728 5729 5729 5731 5733 5735 5737 5739 5740 5742 5743 5744 5746 5748 5750 5752 5755 5757 5758 5759 5759 5759 5760 5760 5761 5761 5761 5761 5760 5759 5759 5759 5758 5759 5760 5761 5762 5763 5765 5766 5767 5767 5768 5768 5769 5770 5771 5772 5772 5773 5774 5775 5776 5776 5777 5778 5779 5780 5780 5781 5782 5783 5783 5783 5783 5783 5783 5784 5784 5784 5785 5785 5785 5786 5786 5786 5786 5786 5787 5787 5787 5787 5787 5788 5789 5788
5709 5710 5712 5713 5714 5715 5718 5720 5721 5721 5723 5726 5727 5728 5729 5730 5732 5733 5735 5737 5739 5740 5741 5743 5745 5748 5751 5754 5755 5756 5756 5756 5757 5757 5758 5758 5758 5758 5758 5757 5757 5757 5757 5757 5758 5759 5760 5761 5762 5763 5764 5764 5765 5766 5766 5767 5768 5769 5769 5770 5771 5772 5772 5773 5773 5775 5776 5776 5777 5778 5779 5780 5781 5781 5782 5782 5782 5782 5783 5783 5782 5783 5783 5783 5783 5784 5784 5784 5784 5784 5785 5785 5785 5785 5786 5786 5786
5708 5709 5710 5711 5712 5713 5715 5717 5718 5719 5722 5724 5726 5727 5727 5727 5729 5730 5731 5733 5736 5737 5738 5740 5743 5746 5749 5751 5752 5753 5753 5753 5754 5755 5755 5755 5755 5756 5756 5755 5755 5755 5756 5757 5758 5758 5759 5760 5760 5761 5762 5763 5763 5764 5765 5765 5766 5766 5767 5768 5769 5769 5769 5770 5771 5772 5774 5774 5775 5776 5778 5779 5779 5779 5780 5780 5781 5781 5781 5781 5781 5781 5781 5781 5781 5781 5781 5782 5782 5783 5783 5783 5783 5783 5784 5784 5784
5707 5708 5709 5709 5710 5711 5714 5716 5717 5718 5720 5723 5725 5725 5724 5725 5726 5727 5728 5731 5733 5735 5736 5737 5740 5743 5745 5747 5749 5750 5750 5751 5752 5752 5752 5752 5753 5753 5754 5754 5754 5754 5754 5756 5757 5758 5758 5758 5759 5759 5760 5761 5762 5763 5763 5764 5764 5764 5765 5766 5767 5767 5767 5768 5768 5770 5771 5772 5773 5775 5776 5777 5777 5777 5778 5778 5779 5780 5780 5780 5780 5780 5780 5780 5779 5779 5779 5779 5780 5780 5781 5781 5781 5781 5781 5781 5782
5706 5706 5706 5707 5708 5710 5712 5714 5715 5717 5719 5721 5722 5721 5721 5722 5724 5725 5727 5729 5731 5733 5734 5735 5738 5740 5742 5744 5746 5747 5747 5748 5750 5750 5751 5751 5751 5751 5752 5752 5752 5753 5754 5755 5756 5756 5756 5756 5757 5758 5758 5759 5760 5761 5762 5762 5763 5764 5765 5766 5766 5766 5766 5766 5767 5768 5770 5771 5772 5773 5774 5775 5775 5775 5776 5777 5777 5778 5778 5779 5779 5779 5779 5779 5778 5778 5778 5778 5778 5779 5779 5779 5779 5779 5779 5779 5780
5704 5705 5705 5707 5709 5710 5711 5713 5713 5715 5717 5718 5718 5718 5718 5719 5720 5722 5724 5727 5729 5730 5730 5731 5733 5736 5739 5741 5743 5744 5745 5746 5748 5748 5749 5750 5750 5750 5750 5751 5751 5752 5753 5754 5754 5754 5755 5755 5756 5757 5758 5759 5760 5760 5761 5762 5763 5763 5764 5764 5765 5764 5764 5765 5766 5767 5768 5769 5769 5770 5771 5772 5772 5773 5774 5775 5775 5776 5777 5777 5777 5777 5777 5777 5777 5776 5776 5776 5776 5777 5777 5777 5777 5777 5777 5778 5778
5702 5704 5705 5707 5708 5708 5709 5710 5711 5713 5714 5714 5714 5714 5715 5716 5717 5718 5721 5724 5727 5728 5728 5728 5730 5733 5737 5739 5740 5741 5742 5743 5745 5746 5747 5748 5748 5748 5749 5749 5750 5751 5751 5752 5752 5752 5753 5754 5755 5757 5757 5758 5759 5759 5760 5760 5761 5762 5762 5763 5763 5763 5763 5763 5764 5765 5766 5766 5767 5768 5769 5769 5770 5771 5772 5773 5774 5774 5775 5775 5775 5775 5775 5775 5775 5775 5774 5774 5775 5775 5775 5776 5776 5776 5776 5776 5776
5700 5701 5703 5704 5704 5705 5707 5708 5709 5711 5712 5712 5712 5712 5713 5714 5715 5717 5719 5722 5725 5726 5726 5727 5729 5731 5733 5735 5736 5738 5739 5741 5743 5743 5745 5746 5746 5747 5747 5747 5748 5749 5749 5749 5749 5749 5750 5751 5753 5754 5756 5757 5758 5758 5758 5758 5759 5759 5759 5760 5760 5760 5760 5761 5762 5763 5763 5763 5764 5765 5765 5766 5767 5768 5769 5771 5772 5772 5773 5773 5773 5773 5773 5773 5773 5773 5772 5772 5773 5773 5773 5774 5774 5774 5774 5774 5774
5697 5698 5699 5700 5701 5703 5704 5706 5707 5709 5710 5710 5710 5711 5711 5712 5713 5716 5719 5721 5724 5725 5725 5726 5727 5729 5730 5731 5733 5736 5737 5739 5740 5741 5743 5744 5744 5745 5745 5746 5746 5746 5746 5746 5744 5744 5745 5748 5750 5752 5754 5755 5756 5756 5756 5755 5755 5756 5756 5756 5757 5757 5757 5757 5758 5759 5760 5760 5761 5762 5763 5764 5765 5766 5767 5768 5769 5770 5771 5771 5771 5771 5772 5772 5771 5771 5770 5770 5770 5771 5771 5771 5772 5772 5772 5772 5772
5694 5695 5696 5698 5699 5700 5702 5704 5705 5707 5708 5708 5708 5709 5709 5710 5712 5714 5717 5720 5721 5722 5723 5724 5724 5725 5727 5729 5731 5733 5735 5736 5738 5739 5740 5741 5742 5743 5743 5744 5744 5744 5745 5745 5744 5744 5745 5748 5750 5751 5753 5754 5753 5753 5752 5752 5751 5752 5752 5752 5753 5753 5753 5754 5755 5756 5757 5757 5758 5759 5760 5761 5762 5763 5765 5766 5767 5768 5769 5769 5769 5770 5770 5770 5770 5769 5769 5769 5769 5769 5769 5769 5770 5770 5770 5771 5771
5689 5691 5693 5695 5696 5697 5699 5701 5702 5703 5705 5706 5706 5707 5707 5709 5710 5711 5714 5717 5719 5720 5721 5721 5722 5724 5726 5727 5729 5731 5732 5733 5735 5736 5737 5738 5740 5741 5742 5742 5742 5743 5743 5744 5746 5746 5747 5748 5749 5748 5748 5748 5748 5748 5748 5748 5748 5749 5749 5749 5750 5750 5751 5751 5752 5753 5753 5754 5755 5756 5757 5758 5760 5761 5762 5764 5765 5766 5766 5767 5767 5768 5768 5768 5768 5768 5767 5767 5767 5767 5768 5768 5768 5768 5769 5769 5769